IU2GED-13 Weather Reports


time (UTC)temp
F
wind
direction
speed
knots
gust
knots
rain 1hr
in
rain 24hr
in
rain mn
in
humidity
%
barometer
mb
20260503072231 59 360 0.0 0.0 0.00 0.00 0.00 66 1016.7
20260503071736 58 355 0.0 0.0 0.00 0.00 0.00 67 1016.8
20260503071222 58 355 0.0 0.0 0.00 0.00 0.00 68 1016.8
20260503070727 57 355 0.0 0.0 0.00 0.00 0.00 69 1016.8
20260503070234 57 355 0.0 0.0 0.00 0.00 0.00 70 1016.8
20260503060236 51 355 2.6 5.2 0.00 0.00 0.00 79 1016.9
20260503054730 49 360 1.7 4.3 0.00 0.00 0.00 83 1016.9
20260503054237 49 26 0.9 3.5 0.00 0.00 0.00 84 1016.9
20260503053741 48 5 0.9 3.5 0.00 0.00 0.00 85 1016.9
20260503053245 48 11 1.7 2.6 0.00 0.00 0.00 86 1017.0
20260503052730 47 355 1.7 2.6 0.00 0.00 0.00 87 1016.9
20260503052236 47 9 1.7 2.6 0.00 0.00 0.00 87 1016.9
20260503051746 47 287 0.0 2.6 0.00 0.00 0.00 87 1016.9
20260503051231 47 287 0.9 2.6 0.00 0.00 0.00 87 1017.1
20260503050736 46 49 0.9 1.7 0.00 0.00 0.00 88 1017.0
20260503050222 46 49 0.0 0.0 0.00 0.00 0.00 87 1017.0
20260503045727 46 49 0.0 0.0 0.00 0.00 0.00 87 1017.0
20260503045232 46 49 0.0 0.0 0.00 0.00 0.00 87 1016.9
20260503044737 46 49 0.0 0.0 0.00 0.00 0.00 87 1017.0
20260503044303 47 49 0.0 0.0 0.00 0.00 0.00 87 1017.0
20260503043747 47 49 0.0 0.0 0.00 0.00 0.00 86 1017.0
20260503043232 47 49 0.0 1.7 0.00 0.00 0.00 86 1017.0
20260503042737 47 49 0.0 2.6 0.00 0.00 0.00 86 1017.0
20260503042242 47 24 0.9 1.7 0.00 0.00 0.00 86 1017.0
20260503041746 47 202 0.0 1.7 0.00 0.00 0.00 86 1017.0
20260503041230 47 202 0.9 1.7 0.00 0.00 0.00 86 1017.0
20260503040757 47 317 0.0 0.9 0.00 0.00 0.00 86 1017.0
20260503040226 47 317 0.0 4.3 0.00 0.00 0.00 86 1017.0
20260503035731 47 317 1.7 4.3 0.00 0.00 0.00 87 1017.0
20260503035256 47 55 2.6 3.5 0.00 0.00 0.00 87 1017.0
20260503034801 47 36 0.9 2.6 0.00 0.00 0.00 87 1017.0
20260503034226 47 27 0.0 1.7 0.00 0.00 0.00 86 1017.0
20260503033749 47 27 0.9 1.7 0.00 0.00 0.00 86 1017.1
20260503033234 47 186 0.9 1.7 0.00 0.00 0.00 86 1017.1
20260503032740 47 119 0.0 2.6 0.00 0.00 0.00 85 1017.3
20260503032226 47 193 0.9 3.5 0.00 0.00 0.00 85 1017.2
20260503031732 47 196 0.9 3.5 0.00 0.00 0.00 85 1017.3
20260503031238 47 5 0.0 3.5 0.00 0.00 0.00 85 1017.3
20260503030743 48 159 0.0 2.6 0.00 0.00 0.00 85 1017.2
20260503030226 48 180 0.9 2.6 0.00 0.00 0.00 84 1017.3
20260503025732 48 290 0.9 3.5 0.00 0.00 0.00 84 1017.2
20260503025257 48 355 0.9 4.3 0.00 0.00 0.00 84 1017.3
20260503024741 48 38 3.5 4.3 0.00 0.00 0.00 84 1017.4
20260503024229 48 37 1.7 3.5 0.00 0.00 0.00 85 1017.3
20260503023754 48 41 0.9 1.7 0.00 0.00 0.00 85 1017.4
20260503023238 48 48 0.0 0.0 0.00 0.00 0.00 84 1017.4
20260503022744 48 61 0.0 0.0 0.00 0.00 0.00 84 1017.4
20260503022228 48 61 0.0 0.0 0.00 0.00 0.00 84 1017.4
20260503021734 48 61 0.0 0.0 0.00 0.00 0.00 84 1017.5
20260503021259 48 61 0.0 0.0 0.00 0.00 0.00 83 1017.5
20260503020724 48 61 0.0 0.0 0.00 0.00 0.00 83 1017.5
20260503020228 49 61 0.0 0.0 0.00 0.00 0.00 83 1017.5
20260503015753 49 61 0.0 0.9 0.00 0.00 0.00 82 1017.5
20260503015258 49 61 0.0 1.7 0.00 0.00 0.00 82 1017.5
20260503014723 49 303 0.0 3.5 0.00 0.00 0.00 82 1017.5
20260503014227 49 55 1.7 3.5 0.00 0.00 0.00 81 1017.5
20260503013731 49 40 0.0 0.9 0.00 0.00 0.00 82 1017.5
20260503013235 49 29 0.0 0.9 0.00 0.00 0.00 81 1017.6
20260503012741 49 50 0.0 2.6 0.00 0.00 0.00 81 1017.6
20260503012225 49 68 1.7 2.6 0.00 0.00 0.00 81 1017.6
20260503011750 49 32 0.0 1.7 0.00 0.00 0.00 82 1017.7
20260503011239 49 63 0.9 2.6 0.00 0.00 0.00 81 1017.7
20260503010725 50 31 0.0 5.2 0.00 0.00 0.00 81 1017.8
20260503010251 49 331 2.6 5.2 0.00 0.00 0.00 82 1017.9
20260503005736 49 29 0.9 2.6 0.00 0.00 0.00 81 1017.9
20260503005300 50 21 0.0 0.0 0.00 0.00 0.00 80 1018.0
20260503004745 50 219 0.0 0.0 0.00 0.00 0.00 81 1018.0
20260503004229 50 219 0.0 0.0 0.00 0.00 0.00 80 1018.2
20260503003735 50 32 0.0 0.0 0.00 0.00 0.00 79 1018.1
20260503003222 50 57 0.0 1.7 0.00 0.00 0.00 79 1018.2
20260503002728 50 57 0.0 3.5 0.00 0.00 0.00 79 1018.2
20260503002233 51 58 1.7 3.5 0.00 0.00 0.00 79 1018.3
20260503001739 51 41 0.9 4.3 0.00 0.00 0.00 78 1018.3
20260503001227 51 277 0.0 4.3 0.00 0.00 0.00 78 1018.4
20260503000729 52 334 0.9 5.2 0.00 0.00 0.00 77 1018.4
20260503000237 52 288 1.7 7.0 0.00 0.00 0.00 77 1018.5
20260502235747 52 348 3.5 8.7 0.00 0.00 0.00 77 1018.5
20260502235229 52 329 3.5 8.7 0.00 0.00 0.00 78 1018.5
20260502234734 51 13 2.6 8.7 0.00 0.00 0.00 78 1018.7
20260502234238 51 36 2.6 7.8 0.00 0.00 0.00 78 1018.7
20260502233724 51 360 3.5 7.8 0.00 0.00 0.00 78 1018.8
20260502233230 52 42 2.6 7.0 0.00 0.00 0.00 78 1018.8
20260502232735 52 21 3.5 7.0 0.00 0.00 0.00 78 1018.9
20260502232304 52 344 3.5 5.2 0.00 0.00 0.00 78 1018.9
20260502231727 51 360 2.6 6.1 0.00 0.00 0.00 78 1018.9
20260502231230 51 355 3.5 6.1 0.00 0.00 0.00 78 1018.9
20260502230736 52 40 2.6 4.3 0.00 0.00 0.00 78 1019.0
20260502230222 52 360 1.7 4.3 0.00 0.00 0.00 78 1019.0
20260502225728 52 9 2.6 5.2 0.00 0.00 0.00 77 1019.0
20260502225238 52 78 2.6 5.2 0.00 0.00 0.00 78 1019.0
20260502224724 52 28 2.6 4.3 0.00 0.00 0.00 77 1019.1
20260502224230 51 44 2.6 4.3 0.00 0.00 0.00 78 1019.1
20260502223736 51 58 0.9 2.6 0.00 0.00 0.00 77 1019.1
20260502223302 51 70 1.7 2.6 0.00 0.00 0.00 77 1019.1
20260502222727 52 51 0.0 0.9 0.00 0.00 0.00 77 1019.1
20260502222233 52 42 0.0 0.9 0.00 0.00 0.00 77 1019.1
20260502221739 52 42 0.0 0.9 0.00 0.00 0.00 76 1019.2
20260502221224 53 42 0.0 2.6 0.00 0.00 0.00 76 1019.1
20260502220750 53 42 0.0 3.5 0.00 0.00 0.00 76 1019.1
20260502220235 53 236 0.9 3.5 0.00 0.00 0.00 76 1019.1
20260502215724 53 232 0.9 4.3 0.00 0.00 0.00 75 1019.1
20260502215229 53 59 2.6 7.0 0.00 0.00 0.00 75 1019.0
20260502214755 53 15 3.5 7.0 0.00 0.00 0.00 75 1018.9
20260502214240 54 325 3.5 5.2 0.00 0.00 0.00 74 1018.9
20260502213724 54 26 2.6 4.3 0.00 0.00 0.00 74 1018.9
20260502213228 54 28 2.6 4.3 0.00 0.00 0.00 74 1018.9
20260502212734 54 38 2.6 4.3 0.00 0.00 0.00 74 1018.9
20260502212301 54 29 2.6 4.3 0.00 0.00 0.00 74 1018.9
20260502211725 54 18 3.5 4.3 0.00 0.00 0.00 74 1018.9
20260502211252 54 53 2.6 4.3 0.00 0.00 0.00 73 1019.0
20260502210736 54 9 1.7 3.5 0.00 0.00 0.00 73 1019.0
20260502210240 54 5 0.0 3.5 0.00 0.00 0.00 72 1019.0
20260502205745 54 5 1.7 3.5 0.00 0.00 0.00 72 1019.1
20260502205246 55 360 0.9 2.6 0.00 0.00 0.00 71 1019.0
20260502204728 55 51 0.9 2.6 0.00 0.00 0.00 70 1019.0
20260502204233 56 333 0.0 3.5 0.00 0.00 0.00 70 1019.0
20260502203736 56 339 0.9 3.5 0.00 0.00 0.00 69 1019.0
20260502203224 56 64 1.7 3.5 0.00 0.00 0.00 69 1018.9
20260502202728 56 346 2.6 3.5 0.00 0.00 0.00 68 1018.9
20260502202253 57 355 0.9 4.3 0.00 0.00 0.00 68 1019.0
20260502201737 57 44 1.7 4.3 0.00 0.00 0.00 67 1019.0
20260502201242 57 65 3.5 5.2 0.00 0.00 0.00 67 1019.0
20260502200728 57 360 2.6 5.2 0.00 0.00 0.00 68 1018.9
20260502200233 57 22 2.6 4.3 0.00 0.00 0.00 67 1018.9
20260502195737 57 9 2.6 4.3 0.00 0.00 0.00 67 1018.9
20260502195242 57 331 2.6 5.2 0.00 0.00 0.00 67 1018.9
20260502194728 58 46 2.6 5.2 0.00 0.00 0.00 66 1018.9
20260502194253 58 29 2.6 4.3 0.00 0.00 0.00 65 1018.9
20260502193737 59 326 2.6 4.3 0.00 0.00 0.00 64 1018.8
20260502193227 59 19 0.9 7.0 0.00 0.00 0.00 63 1018.8
20260502192734 59 19 2.6 5.2 0.00 0.00 0.00 63 1018.8
20260502192240 59 15 2.6 5.2 0.00 0.00 0.00 63 1018.8
20260502191724 59 31 3.5 5.2 0.00 0.00 0.00 63 1018.7
20260502191230 60 336 4.3 7.8 0.00 0.00 0.00 62 1018.6
20260502190736 59 22 3.5 7.8 0.00 0.00 0.00 62 1018.5
20260502190241 59 17 1.7 5.2 0.00 0.00 0.00 62 1018.5
20260502185742 60 30 1.7 4.3 0.00 0.00 0.00 61 1018.5
20260502185228 60 355 2.6 6.1 0.00 0.00 0.00 61 1018.5
20260502184728 61 62 3.5 6.1 0.00 0.00 0.00 59 1018.3
20260502184233 61 55 2.6 7.0 0.00 0.00 0.00 59 1018.3
20260502183742 61 34 4.3 7.0 0.00 0.00 0.00 59 1018.3
20260502183227 62 336 2.6 10.4 0.00 0.00 0.00 58 1018.3
20260502182733 62 61 5.2 10.4 0.00 0.00 0.00 57 1018.2
20260502182238 62 26 5.2 9.6 0.00 0.00 0.00 56 1018.1
20260502181723 63 315 2.6 4.3 0.00 0.00 0.00 55 1018.0
20260502181227 64 84 0.9 3.5 0.00 0.00 0.00 52 1018.0
20260502180731 65 304 2.6 3.5 0.00 0.00 0.00 50 1018.0
20260502180234 65 110 0.0 2.6 0.00 0.00 0.00 49 1017.9
20260502170240 67 146 5.2 8.7 0.00 0.00 0.00 46 1017.6
20260502164224 67 198 7.8 10.4 0.00 0.00 0.00 44 1017.6
20260502163748 67 198 5.2 12.2 0.00 0.00 0.00 45 1017.7
20260502163233 67 201 6.1 11.3 0.00 0.00 0.00 45 1017.7
20260502162737 67 216 6.1 11.3 0.00 0.00 0.00 45 1017.7
20260502162223 68 227 7.0 11.3 0.00 0.00 0.00 45 1017.6
20260502161728 68 185 7.8 11.3 0.00 0.00 0.00 45 1017.7
20260502161232 68 202 7.0 11.3 0.00 0.00 0.00 45 1017.7
20260502160737 68 171 7.8 13.9 0.00 0.00 0.00 45 1017.7
20260502160243 68 191 7.0 13.9 0.00 0.00 0.00 44 1017.7
20260502151743 70 198 8.7 13.0 0.00 0.00 0.00 43 1018.1
20260502151225 70 178 7.0 13.9 0.00 0.00 0.00 43 1018.1
20260502150729 70 218 8.7 11.3 0.00 0.00 0.00 44 1018.1
20260502150233 69 229 7.0 12.2 0.00 0.00 0.00 44 1018.1
20260502130726 69 292 6.1 12.2 0.00 0.00 0.00 45 1019.5
20260502130251 69 196 7.0 16.5 0.00 0.00 0.00 46 1019.5
20260502123735 68 178 7.8 13.9 0.00 0.00 0.00 46 1019.8
20260502123223 68 175 7.8 13.9 0.00 0.00 0.00 46 1019.9
20260502122728 68 217 7.8 11.3 0.00 0.00 0.00 45 1019.8
20260502122253 68 161 7.8 13.0 0.00 0.00 0.00 46 1020.0
20260502121734 68 215 7.0 13.0 0.00 0.00 0.00 46 1020.0
20260502121238 68 205 7.8 12.2 0.00 0.00 0.00 46 1020.1
20260502120722 68 200 5.2 18.2 0.00 0.00 0.00 47 1020.1
20260502120228 68 207 7.0 13.9 0.00 0.00 0.00 46 1020.2
20260502115733 67 201 7.0 14.8 0.00 0.00 0.00 46 1020.2
20260502115257 68 203 7.0 12.2 0.00 0.00 0.00 46 1020.4
20260502114802 67 198 7.0 10.4 0.00 0.00 0.00 47 1020.5
20260502114227 68 213 7.0 10.4 0.00 0.00 0.00 46 1020.4
20260502113733 68 169 6.1 13.0 0.00 0.00 0.00 46 1020.5
20260502113238 67 209 6.1 11.3 0.00 0.00 0.00 46 1020.6
20260502112723 66 256 7.0 11.3 0.00 0.00 0.00 46 1020.7
20260502112228 67 210 7.8 12.2 0.00 0.00 0.00 47 1020.7
20260502111748 67 190 7.0 12.2 0.00 0.00 0.00 46 1020.9
20260502111252 66 193 7.8 12.2 0.00 0.00 0.00 46 1021.0
20260502110740 66 192 7.0 12.2 0.00 0.00 0.00 48 1021.1
20260502110225 66 192 5.2 11.3 0.00 0.00 0.00 47 1021.1
20260502105731 66 186 7.8 14.8 0.00 0.00 0.00 46 1021.2
20260502105234 66 203 6.1 14.8 0.00 0.00 0.00 47 1021.3
20260502104739 66 201 9.6 13.9 0.00 0.00 0.00 47 1021.3
20260502104224 66 221 7.0 13.9 0.00 0.00 0.00 47 1021.4
20260502103729 66 244 8.7 13.9 0.00 0.00 0.00 48 1021.4
20260502103235 65 178 7.8 13.9 0.00 0.00 0.00 47 1021.5
20260502102738 66 168 7.8 13.0 0.00 0.00 0.00 47 1021.4
20260502102241 66 188 5.2 14.8 0.00 0.00 0.00 48 1021.6
20260502101804 65 221 7.0 14.8 0.00 0.00 0.00 49 1021.6
20260502101226 65 188 8.7 12.2 0.00 0.00 0.00 48 1021.6
20260502100730 65 184 5.2 8.7 0.00 0.00 0.00 49 1021.8
20260502100235 64 190 7.0 10.4 0.00 0.00 0.00 49 1021.8
20260502091247 63 226 5.2 8.7 0.00 0.00 0.00 49 1022.3
20260502090732 63 151 4.3 8.7 0.00 0.00 0.00 49 1022.3
20260502090234 63 145 4.3 7.0 0.00 0.00 0.00 49 1022.4